| time (UTC) | temp F | wind direction | speed MPH | gust MPH | rain 1hr in | rain 24hr in | rain mn in | humidity % | barometer mb |
| 20260504081656 | 51 | 221 | 3.0 | 7.0 | 0.00 | 0.00 | 0.00 | 54 | 1010.8 |
| 20260504081152 | 51 | 170 | 3.0 | 7.0 | 0.00 | 0.00 | 0.00 | 53 | 1010.8 |
| 20260504080649 | 51 | 142 | 3.0 | 10.0 | 0.00 | 0.00 | 0.00 | 53 | 1010.8 |
| 20260504080145 | 51 | 218 | 4.0 | 8.0 | 0.00 | 0.00 | 0.00 | 54 | 1010.9 |
| 20260504070113 | 51 | 258 | 8.0 | 12.0 | 0.00 | 0.00 | 0.00 | 53 | 1011.8 |
| 20260504050502 | 50 | 195 | 3.0 | 4.0 | 0.00 | 0.00 | 0.00 | 58 | 1013.1 |
| 20260504045959 | 50 | 228 | 2.0 | 5.0 | 0.00 | 0.00 | 0.00 | 58 | 1013.1 |
| 20260504045455 | 50 | 180 | 2.0 | 3.0 | 0.00 | 0.00 | 0.00 | 58 | 1013.1 |
| 20260504044951 | 50 | 212 | 1.0 | 1.0 | 0.00 | 0.00 | 0.00 | 58 | 1013.0 |
| 20260504044448 | 50 | 144 | 3.0 | 4.0 | 0.00 | 0.00 | 0.00 | 58 | 1013.1 |
| 20260504043946 | 50 | 215 | 1.0 | 7.0 | 0.00 | 0.00 | 0.00 | 57 | 1013.1 |
| 20260504043442 | 50 | 189 | 3.0 | 4.0 | 0.00 | 0.00 | 0.00 | 57 | 1013.2 |
| 20260504042940 | 50 | 167 | 2.0 | 4.0 | 0.00 | 0.00 | 0.00 | 57 | 1013.3 |
| 20260504042436 | 50 | 216 | 5.0 | 5.0 | 0.00 | 0.00 | 0.00 | 56 | 1013.4 |
| 20260504041933 | 50 | 196 | 1.0 | 3.0 | 0.00 | 0.00 | 0.00 | 57 | 1013.3 |
| 20260504041429 | 50 | 191 | 1.0 | 3.0 | 0.00 | 0.00 | 0.00 | 56 | 1013.2 |
| 20260504040925 | 50 | 214 | 2.0 | 4.0 | 0.00 | 0.00 | 0.00 | 56 | 1013.4 |
| 20260504040424 | 51 | 200 | 1.0 | 1.0 | 0.00 | 0.00 | 0.00 | 56 | 1013.4 |
| 20260504035919 | 51 | 203 | 2.0 | 3.0 | 0.00 | 0.00 | 0.00 | 55 | 1013.4 |
| 20260504035417 | 51 | 222 | 3.0 | 3.0 | 0.00 | 0.00 | 0.00 | 55 | 1013.5 |
| 20260504034914 | 51 | 195 | 2.0 | 1.0 | 0.00 | 0.00 | 0.00 | 55 | 1013.4 |
| 20260504034412 | 51 | 213 | 1.0 | 1.0 | 0.00 | 0.00 | 0.00 | 56 | 1013.4 |
| 20260504033908 | 51 | 214 | 2.0 | 1.0 | 0.00 | 0.00 | 0.00 | 54 | 1013.5 |
| 20260504033406 | 51 | 226 | 2.0 | 4.0 | 0.00 | 0.00 | 0.00 | 54 | 1013.7 |
| 20260504032902 | 51 | 204 | 3.0 | 4.0 | 0.00 | 0.00 | 0.00 | 54 | 1013.7 |
| 20260504032359 | 51 | 178 | 1.0 | 1.0 | 0.00 | 0.00 | 0.00 | 54 | 1013.8 |
| 20260504031855 | 51 | 212 | 3.0 | 5.0 | 0.00 | 0.00 | 0.00 | 53 | 1013.7 |
| 20260504031353 | 51 | 221 | 3.0 | 4.0 | 0.00 | 0.00 | 0.00 | 54 | 1013.8 |
| 20260504030849 | 51 | 221 | 3.0 | 5.0 | 0.00 | 0.00 | 0.00 | 52 | 1013.9 |
| 20260504030347 | 51 | 289 | 0.0 | 0.0 | 0.00 | 0.00 | 0.00 | 53 | 1014.2 |
| 20260504025842 | 51 | 297 | 1.0 | 7.0 | 0.00 | 0.00 | 0.00 | 52 | 1014.1 |
| 20260504025340 | 51 | 213 | 2.0 | 4.0 | 0.00 | 0.00 | 0.00 | 52 | 1014.0 |
| 20260504024836 | 51 | 245 | 2.0 | 7.0 | 0.00 | 0.00 | 0.00 | 52 | 1014.0 |
| 20260504024333 | 50 | 310 | 3.0 | 7.0 | 0.00 | 0.00 | 0.00 | 51 | 1014.3 |
| 20260504023829 | 50 | 241 | 4.0 | 7.0 | 0.00 | 0.00 | 0.00 | 51 | 1014.1 |
| 20260504023327 | 50 | 179 | 2.0 | 4.0 | 0.00 | 0.00 | 0.00 | 51 | 1014.3 |
| 20260504022822 | 50 | 226 | 4.0 | 5.0 | 0.00 | 0.00 | 0.00 | 51 | 1014.1 |
| 20260504022319 | 49 | 223 | 3.0 | 4.0 | 0.00 | 0.00 | 0.00 | 52 | 1014.1 |
| 20260504021816 | 49 | 211 | 2.0 | 3.0 | 0.00 | 0.00 | 0.00 | 52 | 1013.8 |
| 20260504021314 | 49 | 189 | 1.0 | 1.0 | 0.00 | 0.00 | 0.00 | 51 | 1013.8 |
| 20260504020810 | 49 | 189 | 1.0 | 1.0 | 0.00 | 0.00 | 0.00 | 51 | 1013.7 |
| 20260504020307 | 50 | 188 | 1.0 | 1.0 | 0.00 | 0.00 | 0.00 | 51 | 1013.8 |
| 20260504015802 | 50 | 189 | 1.0 | 1.0 | 0.00 | 0.00 | 0.00 | 51 | 1013.7 |
| 20260504015259 | 50 | 189 | 1.0 | 1.0 | 0.00 | 0.00 | 0.00 | 49 | 1013.7 |
| 20260504014755 | 50 | 190 | 1.0 | 1.0 | 0.00 | 0.00 | 0.00 | 49 | 1013.5 |
| 20260504014251 | 51 | 187 | 0.0 | 1.0 | 0.00 | 0.00 | 0.00 | 48 | 1013.5 |
| 20260504013749 | 51 | 183 | 1.0 | 1.0 | 0.00 | 0.00 | 0.00 | 48 | 1013.4 |
| 20260504013247 | 51 | 183 | 2.0 | 1.0 | 0.00 | 0.00 | 0.00 | 48 | 1013.3 |
| 20260504012743 | 51 | 186 | 0.0 | 1.0 | 0.00 | 0.00 | 0.00 | 47 | 1013.3 |
| 20260504012241 | 52 | 198 | 1.0 | 1.0 | 0.00 | 0.00 | 0.00 | 46 | 1013.4 |
| 20260504011737 | 53 | 197 | 1.0 | 1.0 | 0.00 | 0.00 | 0.00 | 44 | 1013.5 |
| 20260504011235 | 52 | 253 | 1.0 | 3.0 | 0.00 | 0.00 | 0.00 | 45 | 1013.2 |
| 20260504010731 | 53 | 215 | 2.0 | 3.0 | 0.00 | 0.00 | 0.00 | 44 | 1013.4 |
| 20260504010226 | 53 | 161 | 1.0 | 1.0 | 0.00 | 0.00 | 0.00 | 43 | 1013.4 |
| 20260504005723 | 54 | 208 | 3.0 | 3.0 | 0.00 | 0.00 | 0.00 | 41 | 1013.4 |
| 20260504005220 | 54 | 213 | 3.0 | 5.0 | 0.00 | 0.00 | 0.00 | 41 | 1013.5 |
| 20260504004718 | 54 | 212 | 2.0 | 4.0 | 0.00 | 0.00 | 0.00 | 41 | 1013.4 |
| 20260504004215 | 54 | 210 | 2.0 | 3.0 | 0.00 | 0.00 | 0.00 | 40 | 1013.4 |
| 20260504003712 | 55 | 172 | 0.0 | 3.0 | 0.00 | 0.00 | 0.00 | 41 | 1013.3 |
| 20260504003208 | 55 | 223 | 4.0 | 5.0 | 0.00 | 0.00 | 0.00 | 39 | 1013.4 |
| 20260504002705 | 55 | 220 | 3.0 | 3.0 | 0.00 | 0.00 | 0.00 | 40 | 1013.4 |
| 20260504002202 | 55 | 244 | 1.0 | 4.0 | 0.00 | 0.00 | 0.00 | 40 | 1013.4 |
| 20260504001700 | 56 | 228 | 3.0 | 5.0 | 0.00 | 0.00 | 0.00 | 39 | 1013.4 |
| 20260504001156 | 56 | 255 | 3.0 | 5.0 | 0.00 | 0.00 | 0.00 | 38 | 1013.5 |
| 20260504000653 | 56 | 239 | 2.0 | 4.0 | 0.00 | 0.00 | 0.00 | 39 | 1013.3 |
| 20260504000150 | 57 | 224 | 4.0 | 11.0 | 0.00 | 0.00 | 0.00 | 37 | 1013.5 |
| 20260503235649 | 57 | 240 | 6.0 | 11.0 | 0.00 | 0.00 | 0.00 | 37 | 1013.4 |
| 20260503235145 | 57 | 190 | 9.0 | 11.0 | 0.00 | 0.00 | 0.00 | 37 | 1013.5 |
| 20260503234643 | 57 | 267 | 3.0 | 14.0 | 0.00 | 0.00 | 0.00 | 38 | 1013.4 |
| 20260503234141 | 57 | 187 | 3.0 | 8.0 | 0.00 | 0.00 | 0.00 | 37 | 1013.4 |
| 20260503233638 | 57 | 246 | 6.0 | 14.0 | 0.00 | 0.00 | 0.00 | 36 | 1013.7 |
| 20260503233133 | 57 | 221 | 3.0 | 4.0 | 0.00 | 0.00 | 0.00 | 37 | 1013.8 |
| 20260503232630 | 57 | 202 | 5.0 | 8.0 | 0.00 | 0.00 | 0.00 | 36 | 1013.7 |
| 20260503232128 | 57 | 332 | 3.0 | 10.0 | 0.00 | 0.00 | 0.00 | 36 | 1013.4 |
| 20260503231626 | 57 | 239 | 5.0 | 12.0 | 0.00 | 0.00 | 0.00 | 37 | 1013.5 |
| 20260503231122 | 57 | 236 | 3.0 | 4.0 | 0.00 | 0.00 | 0.00 | 36 | 1013.5 |
| 20260503230619 | 57 | 278 | 8.0 | 10.0 | 0.00 | 0.00 | 0.00 | 35 | 1013.5 |
| 20260503230116 | 57 | 219 | 4.0 | 7.0 | 0.00 | 0.00 | 0.00 | 37 | 1013.5 |
| 20260503225614 | 57 | 187 | 5.0 | 8.0 | 0.00 | 0.00 | 0.00 | 37 | 1013.5 |
| 20260503225113 | 57 | 224 | 5.0 | 16.0 | 0.00 | 0.00 | 0.00 | 36 | 1013.7 |
| 20260503224611 | 57 | 248 | 4.0 | 5.0 | 0.00 | 0.00 | 0.00 | 36 | 1013.8 |
| 20260503224109 | 58 | 272 | 3.0 | 4.0 | 0.00 | 0.00 | 0.00 | 37 | 1013.7 |
| 20260503223606 | 58 | 246 | 3.0 | 12.0 | 0.00 | 0.00 | 0.00 | 36 | 1013.9 |
| 20260503223102 | 58 | 257 | 4.0 | 10.0 | 0.00 | 0.00 | 0.00 | 35 | 1013.8 |
| 20260503222600 | 58 | 304 | 6.0 | 10.0 | 0.00 | 0.00 | 0.00 | 34 | 1013.8 |
| 20260503222058 | 58 | 234 | 6.0 | 11.0 | 0.00 | 0.00 | 0.00 | 34 | 1013.7 |
| 20260503221555 | 58 | 251 | 3.0 | 5.0 | 0.00 | 0.00 | 0.00 | 36 | 1013.8 |
| 20260503221053 | 58 | 177 | 3.0 | 15.0 | 0.00 | 0.00 | 0.00 | 34 | 1013.9 |
| 20260503220549 | 58 | 252 | 5.0 | 10.0 | 0.00 | 0.00 | 0.00 | 36 | 1014.0 |
| 20260503220046 | 58 | 239 | 6.0 | 11.0 | 0.00 | 0.00 | 0.00 | 36 | 1013.9 |
| 20260503215543 | 58 | 224 | 12.0 | 18.0 | 0.00 | 0.00 | 0.00 | 34 | 1013.8 |
| 20260503215040 | 59 | 244 | 5.0 | 18.0 | 0.00 | 0.00 | 0.00 | 35 | 1013.8 |
| 20260503214538 | 59 | 242 | 13.0 | 19.0 | 0.00 | 0.00 | 0.00 | 34 | 1014.0 |
| 20260503214034 | 59 | 291 | 5.0 | 11.0 | 0.00 | 0.00 | 0.00 | 34 | 1013.9 |
| 20260503213533 | 59 | 284 | 3.0 | 4.0 | 0.00 | 0.00 | 0.00 | 34 | 1013.8 |
| 20260503213029 | 59 | 290 | 8.0 | 15.0 | 0.00 | 0.00 | 0.00 | 35 | 1013.9 |
| 20260503212527 | 59 | 224 | 5.0 | 15.0 | 0.00 | 0.00 | 0.00 | 35 | 1013.8 |
| 20260503212024 | 59 | 260 | 6.0 | 12.0 | 0.00 | 0.00 | 0.00 | 34 | 1013.9 |
| 20260503211521 | 58 | 231 | 6.0 | 12.0 | 0.00 | 0.00 | 0.00 | 35 | 1014.0 |
| 20260503211016 | 59 | 262 | 3.0 | 16.0 | 0.00 | 0.00 | 0.00 | 36 | 1013.9 |
| 20260503210514 | 60 | 268 | 6.0 | 14.0 | 0.00 | 0.00 | 0.00 | 33 | 1013.8 |
| 20260503210009 | 60 | 266 | 10.0 | 14.0 | 0.00 | 0.00 | 0.00 | 33 | 1013.8 |
| 20260503205506 | 59 | 239 | 3.0 | 16.0 | 0.00 | 0.00 | 0.00 | 33 | 1013.5 |
| 20260503205002 | 59 | 287 | 9.0 | 18.0 | 0.00 | 0.00 | 0.00 | 33 | 1013.8 |
| 20260503204459 | 59 | 264 | 4.0 | 14.0 | 0.00 | 0.00 | 0.00 | 35 | 1013.9 |
| 20260503203956 | 59 | 280 | 3.0 | 14.0 | 0.00 | 0.00 | 0.00 | 35 | 1013.9 |
| 20260503203454 | 59 | 240 | 4.0 | 16.0 | 0.00 | 0.00 | 0.00 | 35 | 1014.1 |
| 20260503202950 | 59 | 216 | 11.0 | 15.0 | 0.00 | 0.00 | 0.00 | 34 | 1014.2 |
| 20260503202448 | 59 | 242 | 9.0 | 18.0 | 0.00 | 0.00 | 0.00 | 32 | 1014.2 |
| 20260503201947 | 60 | 241 | 7.0 | 11.0 | 0.00 | 0.00 | 0.00 | 33 | 1014.1 |
| 20260503201444 | 59 | 269 | 8.0 | 12.0 | 0.00 | 0.00 | 0.00 | 33 | 1014.3 |
| 20260503200941 | 58 | 261 | 9.0 | 12.0 | 0.00 | 0.00 | 0.00 | 33 | 1014.1 |
| 20260503200438 | 58 | 290 | 3.0 | 10.0 | 0.00 | 0.00 | 0.00 | 34 | 1014.3 |
| 20260503195934 | 59 | 278 | 4.0 | 16.0 | 0.00 | 0.00 | 0.00 | 36 | 1014.4 |
| 20260503195432 | 59 | 273 | 5.0 | 14.0 | 0.00 | 0.00 | 0.00 | 35 | 1014.6 |
| 20260503194928 | 59 | 273 | 5.0 | 14.0 | 0.00 | 0.00 | 0.00 | 35 | 1014.6 |
| 20260503194425 | 61 | 290 | 6.0 | 15.0 | 0.00 | 0.00 | 0.00 | 33 | 1014.6 |
| 20260503193920 | 59 | 215 | 9.0 | 10.0 | 0.00 | 0.00 | 0.00 | 33 | 1014.5 |
| 20260503193416 | 60 | 278 | 3.0 | 10.0 | 0.00 | 0.00 | 0.00 | 34 | 1014.6 |
| 20260503192912 | 59 | 270 | 6.0 | 10.0 | 0.00 | 0.00 | 0.00 | 34 | 1014.8 |
| 20260503192409 | 59 | 270 | 6.0 | 10.0 | 0.00 | 0.00 | 0.00 | 34 | 1014.8 |
| 20260503191904 | 59 | 262 | 5.0 | 10.0 | 0.00 | 0.00 | 0.00 | 36 | 1014.9 |
| 20260503191402 | 58 | 159 | 6.0 | 8.0 | 0.00 | 0.00 | 0.00 | 34 | 1015.0 |
| 20260503190858 | 59 | 288 | 5.0 | 18.0 | 0.00 | 0.00 | 0.00 | 34 | 1015.2 |
| 20260503190356 | 59 | 288 | 5.0 | 18.0 | 0.00 | 0.00 | 0.00 | 34 | 1015.2 |
| 20260503185852 | 60 | 234 | 15.0 | 18.0 | 0.00 | 0.00 | 0.00 | 31 | 1015.2 |
| 20260503185349 | 59 | 250 | 3.0 | 8.0 | 0.00 | 0.00 | 0.00 | 33 | 1015.2 |
| 20260503184848 | 59 | 266 | 6.0 | 18.0 | 0.00 | 0.00 | 0.00 | 35 | 1015.4 |
| 20260503184345 | 59 | 266 | 6.0 | 18.0 | 0.00 | 0.00 | 0.00 | 35 | 1015.4 |
| 20260503183840 | 59 | 253 | 4.0 | 12.0 | 0.00 | 0.00 | 0.00 | 37 | 1015.4 |
| 20260503183338 | 59 | 325 | 6.0 | 11.0 | 0.00 | 0.00 | 0.00 | 34 | 1015.5 |
| 20260503182835 | 59 | 290 | 6.0 | 10.0 | 0.00 | 0.00 | 0.00 | 31 | 1015.4 |
| 20260503182334 | 58 | 263 | 3.0 | 8.0 | 0.00 | 0.00 | 0.00 | 35 | 1015.6 |
| 20260503181831 | 59 | 248 | 7.0 | 16.0 | 0.00 | 0.00 | 0.00 | 35 | 1015.5 |
| 20260503181328 | 59 | 248 | 7.0 | 16.0 | 0.00 | 0.00 | 0.00 | 35 | 1015.5 |
| 20260503180824 | 59 | 250 | 3.0 | 10.0 | 0.00 | 0.00 | 0.00 | 34 | 1015.5 |
| 20260503180323 | 59 | 240 | 11.0 | 16.0 | 0.00 | 0.00 | 0.00 | 32 | 1015.6 |
| 20260503175818 | 59 | 240 | 11.0 | 16.0 | 0.00 | 0.00 | 0.00 | 32 | 1015.6 |
| 20260503175317 | 57 | 257 | 3.0 | 7.0 | 0.00 | 0.00 | 0.00 | 36 | 1015.8 |
| 20260503174812 | 58 | 331 | 15.0 | 21.0 | 0.00 | 0.00 | 0.00 | 34 | 1015.8 |
| 20260503174311 | 57 | 237 | 8.0 | 11.0 | 0.00 | 0.00 | 0.00 | 34 | 1016.0 |
| 20260503173806 | 57 | 210 | 7.0 | 16.0 | 0.00 | 0.00 | 0.00 | 37 | 1015.8 |
| 20260503173302 | 57 | 187 | 4.0 | 15.0 | 0.00 | 0.00 | 0.00 | 36 | 1015.9 |
| 20260503172759 | 58 | 282 | 9.0 | 15.0 | 0.00 | 0.00 | 0.00 | 35 | 1015.9 |
| 20260503172256 | 57 | 315 | 4.0 | 19.0 | 0.00 | 0.00 | 0.00 | 39 | 1016.1 |
| 20260503171752 | 57 | 317 | 9.0 | 18.0 | 0.00 | 0.00 | 0.00 | 37 | 1016.3 |
| 20260503171249 | 57 | 107 | 2.0 | 11.0 | 0.00 | 0.00 | 0.00 | 42 | 1016.3 |
| 20260503170746 | 57 | 232 | 7.0 | 10.0 | 0.00 | 0.00 | 0.00 | 38 | 1016.5 |
| 20260503170243 | 56 | 206 | 3.0 | 12.0 | 0.00 | 0.00 | 0.00 | 44 | 1016.6 |
| 20260503160205 | 53 | 232 | 7.0 | 12.0 | 0.00 | 0.00 | 0.00 | 39 | 1017.1 |
| 20260503150635 | 51 | 202 | 4.0 | 7.0 | 0.00 | 0.00 | 0.00 | 41 | 1017.6 |
| 20260503150131 | 51 | 202 | 4.0 | 7.0 | 0.00 | 0.00 | 0.00 | 41 | 1017.6 |
| 20260503131025 | 46 | 278 | 3.0 | 5.0 | 0.00 | 0.00 | 0.00 | 49 | 1018.0 |
| 20260503130522 | 46 | 278 | 3.0 | 5.0 | 0.00 | 0.00 | 0.00 | 49 | 1018.0 |
| 20260503110413 | 35 | 222 | 1.0 | 1.0 | 0.00 | 0.00 | 0.00 | 84 | 1017.4 |